sat.trackr.live / text

‹ back to catalog

HULIANWANG DIGUI-107

NORAD 66917 · 2025-285C

PAYLOAD ACTIVE UNKNOWN

§ Identity

Operator
Country
PRC
Launch date
2025-12-06
Launch site
WSC
Launch vehicle
Mass (kg)
RCS (m²)

External: N2YO · Heavens-Above · Gunter

§ Orbital elements

Epoch: 2026-05-24T22:17:26.791584Z

Period
108.33 min
Inclination
50.0024°
Eccentricity
0.0001060
Mean motion
13.29325460 rev/d
Perigee alt
1,148.5 km
Apogee alt
1,150.1 km
Semi-major
7,527.4 km
B*
3.6938e-5
RAAN
229.4559°
Arg perigee
212.1750°
Mean anomaly
147.9057°
Rev number
2,296

§ Raw data

HULIANWANG DIGUI-1071 66917U 25285C   26144.92878231 -.00000107  00000+0  36938-4 0  99992 66917  50.0024 229.4559 0001060 212.1750 147.9057 13.29325460 22960

JSON: /api/v1/satellites/66917 · /tle

For live sub-satellite position, see the globe view (requires WebGL).

§ Visibility from observer

Set your observer location to see the next 7 days of passes ≥ 10°. The values pass through the URL so the page stays shareable.

No JS? Fill the form by hand. The geolocation button needs JavaScript.